Regional Weather Roundup
Issued by NWS

Home | Current Version | Previous Version | Graphics & Text | Print | Product List | Glossary On
Versions: 1 2 3 4 5 6 7 8 9 10 11 12 13 14 15 16 17 18 19 20 21 22 23 24 25 26 27 28 29 30 31 32 33 34 35 36 37 38 39 40 41 42 43 44 45 46 47 48 49 50
000
ASUS43 KDMX 210906
RWRIA

WEATHER ROUNDUP FOR IOWA
NATIONAL WEATHER SERVICE DES MOINES IA
300 AM CST WED FEB 21 2018

NOTE: "FAIR" INDICATES FEW OR NO CLOUDS BELOW 12,000 FEET WITH NO
SIGNIFICANT WEATHER AND/OR OBSTRUCTIONS TO VISIBILITY.

* - THESE STATIONS ARE NOT NWS STATIONS...THUS NOT UNDER NWS
QUALITY CONTROL.  THEY ALSO DO NOT REPORT WEATHER SUCH
AS PRECIPITATION OR FOG.

IAZ001>003-012>014-020>022-031>034-043>046-211000-
   NORTHWEST IOWA

CITY           SKY/WX    TMP DP  RH WIND       PRES   REMARKS
CARROLL *      CLEAR      9   5  85 NW9       30.49R WCI  -5
CHEROKEE *     CLEAR      6   2  84 NW6       30.51R WCI  -5
DENISON *      CLEAR      9   3  78 NW7       30.52R WCI  -3
LE MARS *      CLOUDY     3  -2  78 CALM      30.53R
ORANGE CITY *  CLOUDY     0  -2  92 W7        30.49R WCI -13
SHELDON *      CLOUDY     0  -4  85 SW5       30.47R WCI -10
SIOUX CITY     CLEAR      2  -2  83 NW6       30.54R WCI  -9
SPENCER        MIX PCPN   2  -3  80 W6        30.47S WCI  -9
STORM LAKE *   CLEAR      5   1  85 NW9       30.47R WCI  -9
$$

IAZ055>058-069>071-079>083-090>094-211000-
   SOUTHWEST IOWA

CITY           SKY/WX    TMP DP  RH WIND       PRES   REMARKS
ATLANTIC *     CLEAR     10   7  85 N10       30.50R WCI  -3
AUDUBON *      CLEAR     10   5  79 NW8       30.49R WCI  -1
CLARINDA *     CLEAR     12   9  85 N15       30.52S WCI  -4
COUNCIL BLFS * CLEAR     10   7  85 N10       30.50S WCI  -3
CRESTON *      PTCLDY    12   9  85 N12       30.46S WCI  -2
HARLAN  *      CLEAR      9   7  92 N13       30.53R WCI  -7
LAMONI         MOCLDY    14   9  80 N10       30.45R WCI   1
RED OAK *      CLEAR     10   7  85 N10       30.52R WCI  -3
SHENANDOAH *   CLEAR     12   7  79 N10       30.52S WCI  -1
$$

IAZ047>049-059>061-072>074-084-211000-
   CENTRAL IOWA

CITY           SKY/WX    TMP DP  RH WIND       PRES   REMARKS
AMES           CLOUDY    13   6  74 N12       30.48R WCI  -1
ANKENY *       MOCLDY    14   7  73 NW12G20   30.49S WCI   0
BOONE *        CLOUDY    12   7  79 MISG      30.46S
CHARITON *     PTCLDY    16  12  86 N13G20    30.45R WCI   2
DES MOINES     PTCLDY    14   8  77 N13       30.48R WCI   0
GRINNELL*      MOCLDY    15  10  82 NW14      30.45R WCI   0
KNOXVILLE *    CLOUDY    16  10  79 NW14G22   30.44S WCI   1
MARSHALLTOWN   PTCLDY    13   8  81 N14       30.46R WCI  -2
NEWTON *       CLOUDY    14   9  79 N18       30.45S WCI  -3
PELLA *        PTCLDY    16  11  80 N13       30.46F WCI   2
PERRY *        FAIR      12   7  81 NW10      30.49R WCI  -2
$$

IAZ004>006-015-016-023>025-035-036-211000-
   NORTH CENTRAL IOWA

CITY           SKY/WX    TMP DP  RH WIND       PRES   REMARKS
ALGONA *       CLEAR      9 N/A N/A NW9       30.47R WCI  -5
CLARION *      CLEAR      9   9 100 NW12      30.48R WCI  -6
ESTHERVILLE    CLEAR      3  -2  79 W12       30.46R WCI -13
FORT DODGE *   CLEAR      7   3  84 NW5       30.49R WCI  -2
MASON CITY     CLEAR      8   2  76 NW12      30.46R WCI  -7
FOREST CITY *  FAIR      10   5  79 NW6       30.46R WCI   1
WEBSTER CITY * CLOUDY     9   3  78 NW12      30.46R WCI  -6
IOWA FALLS *   FAIR      13   7  79 NW12      30.47R WCI  -1
$$

IAZ007>011-017>019-026>030-037>042-050>054-066-211000-
   NORTHEAST IOWA

CITY           SKY/WX    TMP DP  RH WIND       PRES   REMARKS
CEDAR RAPIDS   FAIR      18  11  74 N18       30.41R WCI   2
CHARLES CITY * FAIR      10   9  92 NW15      30.44R WCI  -6
CLINTON *        N/A     22  17  81 MISG        N/A
DECORAH *      FAIR      10   7  85 NW14      30.40R WCI  -5
DUBUQUE        FAIR      18  11  74 N15       30.37R WCI   4
MONTICELLO *   FAIR      19  12  73 NW14      30.41R WCI   6
OELWEIN *      FAIR      14  12  92 NW18      30.43R WCI  -3
WATERLOO       FAIR      13   7  77 NW13      30.45R WCI  -2
$$

IAZ064-065-067-068-078-211000-
   EAST CENTRAL IOWA

CITY           SKY/WX    TMP DP  RH WIND       PRES   REMARKS
DAVENPORT      MOCLDY    23  16  74 NW15      30.40R WCI  10
IOWA CITY      FAIR      20  11  68 NW15      30.44R WCI   6
MT. PLEASANT * CLOUDY    21  14  73 NW14      30.42R WCI   8
MUSCATINE *    CLOUDY    23  14  68 NW17      30.42R WCI   9
QUAD CITIES    CLOUDY    23  16  74 NW15      30.38R WCI  10
$$

IAZ062-063-075>077-085>089-095>099-211000-
   SOUTHEAST IOWA

CITY           SKY/WX    TMP DP  RH WIND       PRES   REMARKS
BURLINGTON     CLOUDY    22  15  75 NW10      30.40R WCI  11
FAIRFIELD *    CLOUDY    19  14  79 NW15      30.42R WCI   5
FORT MADISON * CLOUDY    21  18  86 NW14      30.41R WCI   8
KEOKUK *       CLOUDY    23  18  80 N12G23    30.40R WCI  12
OSKALOOSA *    FAIR      17  13  84 N13       30.44S WCI   4
OTTUMWA        PTCLDY    18  11  74 NW23      30.43R WCI   0
WASHINGTON *   MOCLDY    19  16  86 NW16      30.43R WCI   5
$$

ABBREVIATIONS USED IN REMARKS
   TC - TEMPERATURES IN CELSIUS
  WCI - WIND CHILL INDEX
   HX - HEAT INDEX
  VSB - VISIBILITY
$$





USA.gov is the U.S. government's official web portal to all federal, state and local government web resources and services.